Lid_Strength_Index
7 10 11 10 9 10 11 11 12 11 10 10 10 10 8 7 8 7 6 6 6 6 5 4 3 3 2 2 2 2 2 1 1 1 1 1 1 0 1 0 -1 -1 -1 -1
10 11 9 8 8 10 11 12 12 11 11 11 11 11 9 9 9 8 8 7 7 7 6 5 4 3 2 2 2 2 2 2 2 1 1 1 1 1 1 1 1 -0 -1 -1
11 10 8 9 10 11 11 12 12 12 11 11 11 12 12 10 9 9 8 7 7 6 6 6 5 4 3 3 2 3 3 3 3 3 3 3 3 2 2 2 1 1 1 -0
9 8 9 10 11 10 13 10 10 11 12 14 11 15 12 11 11 11 10 9 8 8 8 7 6 5 4 3 3 3 3 4 4 4 4 4 4 4 2 2 1 2 3 2
11 10 11 12 11 10 12 9 10 11 12 13 13 15 13 12 12 11 10 10 9 8 8 7 7 7 6 5 5 4 5 6 6 6 6 5 4 4 3 2 3 3 3 4
9 8 8 9 9 8 9 10 11 11 12 17 15 15 16 14 13 11 10 9 8 8 7 7 7 7 6 6 6 5 6 7 7 7 7 7 6 5 4 3 4 3 3 4
11 10 8 8 11 9 9 12 17 18 18 19 15 16 15 13 12 11 10 9 8 8 7 7 7 7 7 7 7 7 7 7 8 8 8 8 7 6 5 4 3 3 3 4
15 16 11 8 10 12 11 12 15 20 19 17 16 18 14 11 10 9 10 9 9 8 7 7 7 7 7 8 8 8 8 8 8 9 9 9 9 8 7 5 4 4 4 3
14 14 9 9 9 9 12 14 11 16 18 17 15 14 12 10 10 10 10 11 9 9 8 8 7 7 8 8 8 8 9 9 9 9 9 10 9 9 9 8 7 6 6 6
11 15 11 9 8 9 10 9 15 14 20 19 17 17 15 13 12 11 10 9 8 8 8 8 7 7 7 8 8 8 8 9 8 8 9 9 9 9 9 8 8 7 7 7
10 12 13 10 12 12 11 13 12 12 14 18 19 17 12 11 10 10 9 8 8 7 7 7 7 7 7 7 7 7 8 8 8 8 8 9 9 9 9 9 8 8 8 8
9 11 15 13 10 9 9 11 11 16 17 15 15 16 11 11 10 10 9 8 7 7 6 6 7 6 7 7 7 7 7 7 7 8 8 9 9 9 10 10 9 9 10 9
9 13 17 16 12 10 12 11 10 11 13 16 17 15 11 10 10 9 8 8 8 7 6 6 5 6 6 6 6 6 6 7 7 8 8 9 9 9 10 10 10 10 10 10
8 12 14 15 14 11 13 12 11 12 16 15 15 13 11 10 9 7 7 6 6 5 6 6 5 5 5 5 6 6 6 6 7 8 8 8 8 8 9 9 10 10 10 10
9 14 13 12 12 12 12 12 11 13 12 15 12 13 10 8 7 6 5 6 7 7 6 6 6 6 6 6 6 6 6 6 7 7 8 8 8 8 8 9 9 9 10 10
9 13 12 14 12 12 13 11 11 12 11 11 11 12 7 6 6 7 7 7 7 7 6 6 6 6 7 6 7 7 7 7 7 8 8 7 8 8 9 9 9 9 10 10
10 12 14 15 13 13 16 13 12 10 10 10 13 10 7 7 7 7 6 6 6 6 6 6 7 7 7 8 9 8 9 8 8 8 8 8 9 9 9 9 10 10 10 10
11 12 13 15 16 19 12 9 9 10 9 8 9 8 7 7 6 5 5 6 7 7 7 7 8 8 8 9 9 9 9 9 9 8 9 9 9 9 10 10 10 10 10 10
10 11 15 16 17 15 13 11 11 11 11 8 8 7 7 6 7 7 7 7 8 8 7 8 9 9 9 10 10 11 10 9 10 10 10 10 10 10 10 11 10 10 10 11
11 10 13 17 18 19 13 9 8 8 13 8 7 7 7 7 10 8 9 9 8 8 9 9 10 11 11 11 11 12 11 11 11 11 11 11 11 11 11 10 10 10 10 11
13 13 15 15 16 14 10 9 8 14 12 7 7 7 7 8 8 8 9 9 9 10 11 11 11 12 12 12 13 13 12 12 12 12 12 12 11 11 11 11 10 10 11 11
13 14 14 14 16 18 9 10 11 9 8 8 8 9 9 9 9 10 10 11 11 12 12 13 13 13 13 13 14 14 13 13 14 14 14 13 13 12 12 12 11 11 11 11
14 11 12 11 12 8 7 8 8 8 8 8 9 9 9 10 10 10 11 12 13 13 14 14 15 15 14 15 15 16 15 16 16 17 16 15 14 14 13 13 12 12 11 11
10 8 10 11 9 8 7 7 7 7 8 9 10 10 10 11 11 12 12 12 13 14 15 16 16 17 17 17 17 17 18 18 19 18 17 16 15 14 13 13 12 12 12 11
10 10 11 11 9 9 8 7 9 10 10 10 11 12 12 12 12 13 14 15 15 16 16 17 18 18 19 19 19 19 20 21 20 19 17 16 15 15 14 13 13 13 11 11
11 11 12 12 9 8 10 10 10 10 11 11 12 13 13 14 14 15 15 15 17 18 18 19 20 20 20 21 21 21 23 23 22 20 18 17 16 15 15 14 14 12 11 10